CDT,Max TemperatureF,Mean TemperatureF,Min TemperatureF,Max Dew PointF,MeanDew PointF,Min DewpointF,Max Humidity, Mean Humidity, Min Humidity, Max Sea Level PressureIn, Mean Sea Level PressureIn, Min Sea Level PressureIn, Max VisibilityMiles, Mean VisibilityMiles, Min VisibilityMiles, Max Wind SpeedMPH, Mean Wind SpeedMPH, Max Gust SpeedMPH,PrecipitationIn, CloudCover, Events, WindDirDegrees
2013-3-1,32,23,13,22,20,11,96,80,63,30.42,30.33,30.22,10,10,8,16,8,20,0.00,5,,340
2013-3-2,45,27,9,34,23,6,100,83,65,30.40,30.22,30.00,10,9,5,14,4,17,0.00,2,,167
2013-3-3,45,36,27,36,32,26,92,81,70,30.01,29.77,29.58,10,7,3,21,6,26,0.00,1,,141
2013-3-4,48,36,23,34,26,10,96,65,34,30.15,29.80,29.57,10,8,2,31,19,46,0.00,4,,323
2013-3-5,35,26,16,16,13,10,84,63,41,30.46,30.33,30.16,10,10,10,37,20,46,T,2,,330
2013-3-6,40,25,10,21,16,8,92,66,40,30.45,30.32,30.06,10,10,10,21,8,25,0.00,0,,151
2013-3-7,50,37,23,27,23,19,88,64,39,30.15,30.10,30.05,10,9,4,18,8,24,0.00,0,,151
2013-3-8,52,37,22,46,32,21,96,75,54,30.14,30.00,29.79,10,8,3,20,6,24,T,3,Rain,115
2013-3-9,48,39,29,46,38,25,100,89,78,29.90,29.68,29.59,10,4,0,33,16,41,0.23,8,Fog-Rain-Snow,61
2013-3-10,31,23,15,28,18,10,92,80,67,30.14,30.02,29.85,10,7,1,38,25,47,T,7,Snow,341
2013-3-11,52,33,13,30,19,9,88,64,39,30.11,30.00,29.87,10,10,10,25,9,31,0.00,0,,313
2013-3-12,39,28,16,24,16,7,92,60,27,30.40,30.26,30.12,10,10,10,33,16,41,0.00,1,,317
2013-3-13,57,35,13,27,19,10,88,56,24,30.41,30.30,30.13,10,10,10,22,7,28,0.00,2,,160
2013-3-14,72,49,26,36,30,24,92,57,22,30.17,30.11,30.02,10,10,10,17,5,21,0.00,0,,336
2013-3-15,75,55,34,37,35,31,82,53,23,29.98,29.83,29.70,10,10,9,17,7,23,0.00,0,,357
2013-3-16,36,31,25,31,21,16,85,66,47,30.18,30.08,29.94,10,10,9,26,14,33,0.00,7,,16
2013-3-17,41,34,26,34,26,19,96,78,59,30.14,29.87,29.63,10,9,4,24,13,31,0.05,8,Rain,151
2013-3-18,40,33,25,32,17,6,89,58,27,30.09,29.93,29.71,10,10,9,35,16,41,0.00,2,,313
2013-3-19,51,34,17,24,17,13,81,53,25,30.41,30.20,30.08,10,10,10,26,11,33,0.00,1,,328
2013-3-20,44,27,9,15,11,7,92,57,22,30.46,30.30,30.07,10,10,8,14,5,24,0.00,1,,9
2013-3-21,37,30,23,23,20,13,88,69,50,30.04,29.92,29.80,10,8,1,20,13,25,0.02,7,Snow,122
2013-3-22,30,27,23,28,23,21,100,93,85,30.04,29.94,29.87,8,2,0,13,7,17,0.16,8,Fog-Snow,130
2013-3-23,30,26,22,28,25,16,100,84,68,30.23,30.08,29.97,10,3,0,24,14,30,T,8,Fog-Snow,17
2013-3-24,29,22,15,19,15,9,84,71,57,30.27,30.19,30.09,10,8,2,31,18,39,T,4,Snow,331
2013-3-25,26,17,8,18,14,8,92,77,62,30.44,30.32,30.19,10,10,5,26,12,32,T,5,Snow,325
2013-3-26,47,25,3,21,13,1,92,59,26,30.44,30.31,30.18,10,10,10,17,6,22,0.00,0,,169
2013-3-27,55,39,23,27,24,20,88,60,32,30.22,30.18,30.13,10,10,10,12,4,15,0.00,2,,145
2013-3-28,62,42,21,33,26,20,96,60,23,30.22,30.18,30.12,10,8,4,17,7,24,0.00,3,,131
2013-3-29,70,48,25,49,35,23,92,60,28,30.20,30.10,29.94,10,9,6,21,7,26,0.14,2,Rain,175
2013-3-30,66,53,40,45,42,33,100,67,34,30.04,29.99,29.94,10,7,0,20,9,29,0.01,6,Fog-Rain,322
2013-3-31,63,46,28,38,30,25,89,57,25,30.22,30.05,29.90,10,10,10,28,12,35,T,3,Rain,349